| time (UTC) | temp C | wind direction | speed KPH | gust KPH | rain 1hr cm | rain 24hr cm | rain mn cm | humidity % | barometer mb |
| 20260508192050 | 22 | 193 | 4.8 | 16.1 | 0.00 | 0.00 | 0.00 | 49 | 1010.1 |
| 20260508191550 | 22 | 240 | 4.8 | 16.1 | 0.00 | 0.00 | 0.00 | 50 | 1010.2 |
| 20260508191048 | 22 | 184 | 4.8 | 16.1 | 0.00 | 0.00 | 0.00 | 52 | 1010.2 |
| 20260508190649 | 22 | 155 | 4.8 | 16.1 | 0.00 | 0.00 | 0.00 | 50 | 1010.2 |
| 20260508190048 | 22 | 163 | 8.0 | 16.1 | 0.00 | 0.00 | 0.00 | 49 | 1010.3 |
| 20260508185549 | 22 | 196 | 6.4 | 22.5 | 0.00 | 0.00 | 0.00 | 50 | 1010.4 |
| 20260508185045 | 22 | 188 | 9.7 | 22.5 | 0.00 | 0.00 | 0.00 | 50 | 1010.5 |
| 20260508184554 | 22 | 175 | 9.7 | 25.7 | 0.00 | 0.00 | 0.00 | 47 | 1010.4 |
| 20260508184043 | 22 | 31 | 8.0 | 25.7 | 0.00 | 0.00 | 0.00 | 47 | 1010.6 |
| 20260508183543 | 23 | 204 | 6.4 | 19.3 | 0.00 | 0.00 | 0.00 | 50 | 1010.6 |
| 20260508183049 | 22 | 125 | 6.4 | 33.8 | 0.00 | 0.00 | 0.00 | 50 | 1010.6 |
| 20260508182541 | 22 | 203 | 6.4 | 33.8 | 0.00 | 0.00 | 0.00 | 50 | 1010.7 |
| 20260508182041 | 23 | 182 | 6.4 | 22.5 | 0.00 | 0.00 | 0.00 | 48 | 1010.6 |
| 20260508181543 | 23 | 204 | 6.4 | 20.9 | 0.00 | 0.00 | 0.00 | 49 | 1010.7 |
| 20260508181040 | 23 | 202 | 4.8 | 16.1 | 0.00 | 0.00 | 0.00 | 51 | 1010.7 |
| 20260508180507 | 23 | 205 | 4.8 | 16.1 | 0.00 | 0.00 | 0.00 | 52 | 1010.8 |
| 20260508180005 | 23 | 213 | 3.2 | 16.1 | 0.00 | 0.00 | 0.00 | 49 | 1010.8 |
| 20260508175505 | 23 | 198 | 6.4 | 17.7 | 0.00 | 0.00 | 0.00 | 49 | 1011.0 |
| 20260508175003 | 23 | 97 | 1.6 | 14.5 | 0.00 | 0.00 | 0.00 | 55 | 1011.0 |
| 20260508174503 | 22 | 214 | 6.4 | 14.5 | 0.00 | 0.00 | 0.00 | 47 | 1011.1 |
| 20260508174002 | 22 | 178 | 4.8 | 14.5 | 0.00 | 0.00 | 0.00 | 50 | 1011.2 |
| 20260508173501 | 22 | 5 | 4.8 | 16.1 | 0.00 | 0.00 | 0.00 | 49 | 1011.1 |
| 20260508173100 | 22 | 210 | 8.0 | 20.9 | 0.00 | 0.00 | 0.00 | 49 | 1011.3 |
| 20260508172602 | 22 | 184 | 8.0 | 20.9 | 0.00 | 0.00 | 0.00 | 49 | 1011.5 |
| 20260508172100 | 22 | 196 | 8.0 | 20.9 | 0.00 | 0.00 | 0.00 | 49 | 1011.5 |
| 20260508171600 | 22 | 298 | 6.4 | 20.9 | 0.00 | 0.00 | 0.00 | 49 | 1011.5 |
| 20260508171100 | 22 | 259 | 6.4 | 19.3 | 0.00 | 0.00 | 0.00 | 52 | 1011.5 |
| 20260508170502 | 22 | 246 | 4.8 | 16.1 | 0.00 | 0.00 | 0.00 | 52 | 1011.8 |
| 20260508170002 | 22 | 276 | 8.0 | 16.1 | 0.00 | 0.00 | 0.00 | 52 | 1012.0 |
| 20260508165500 | 22 | 228 | 4.8 | 16.1 | 0.00 | 0.00 | 0.00 | 58 | 1012.0 |
| 20260508165059 | 21 | 295 | 3.2 | 17.7 | 0.00 | 0.00 | 0.00 | 52 | 1012.1 |
| 20260508164605 | 21 | 269 | 3.2 | 17.7 | 0.00 | 0.00 | 0.00 | 50 | 1012.3 |
| 20260508164059 | 21 | 279 | 4.8 | 11.3 | 0.00 | 0.00 | 0.00 | 53 | 1012.3 |
| 20260508163557 | 21 | 337 | 3.2 | 14.5 | 0.00 | 0.00 | 0.00 | 54 | 1012.4 |
| 20260508163117 | 21 | 279 | 4.8 | 14.5 | 0.00 | 0.00 | 0.00 | 55 | 1012.4 |
| 20260508162557 | 21 | 205 | 8.0 | 14.5 | 0.00 | 0.00 | 0.00 | 52 | 1012.5 |
| 20260508162056 | 21 | 188 | 1.6 | 14.5 | 0.00 | 0.00 | 0.00 | 58 | 1012.6 |
| 20260508161556 | 21 | 150 | 4.8 | 17.7 | 0.00 | 0.00 | 0.00 | 54 | 1012.7 |
| 20260508161053 | 20 | 230 | 4.8 | 19.3 | 0.00 | 0.00 | 0.00 | 68 | 1012.7 |
| 20260508160501 | 20 | 304 | 1.6 | 6.4 | 0.00 | 0.00 | 0.00 | 65 | 1013.1 |
| 20260508160100 | 19 | 340 | 1.6 | 6.4 | 0.00 | 0.00 | 0.00 | 68 | 1013.1 |
| 20260508155559 | 18 | 271 | 0.0 | 8.0 | 0.00 | 0.00 | 0.00 | 71 | 1013.0 |
| 20260508155101 | 18 | 243 | 1.6 | 8.0 | 0.00 | 0.00 | 0.00 | 68 | 1013.0 |
| 20260508154559 | 18 | 279 | 0.0 | 4.8 | 0.00 | 0.00 | 0.00 | 68 | 1013.3 |
| 20260508154054 | 18 | 315 | 0.0 | 14.5 | 0.00 | 0.00 | 0.00 | 70 | 1013.2 |
| 20260508153554 | 17 | 204 | 1.6 | 14.5 | 0.00 | 0.00 | 0.00 | 70 | 1013.3 |
| 20260508153056 | 17 | 278 | 1.6 | 4.8 | 0.00 | 0.00 | 0.00 | 69 | 1013.4 |
| 20260508152552 | 17 | 273 | 1.6 | 6.4 | 0.00 | 0.00 | 0.00 | 67 | 1013.5 |
| 20260508152052 | 17 | 193 | 1.6 | 6.4 | 0.00 | 0.00 | 0.00 | 70 | 1013.4 |
| 20260508151552 | 17 | 194 | 0.0 | 6.4 | 0.00 | 0.00 | 0.00 | 72 | 1013.4 |
| 20260508151050 | 17 | 265 | 1.6 | 6.4 | 0.00 | 0.00 | 0.00 | 71 | 1013.5 |
| 20260508150648 | 16 | 65 | 0.0 | 11.3 | 0.00 | 0.00 | 0.00 | 71 | 1013.6 |
| 20260508150052 | 16 | 194 | 1.6 | 11.3 | 0.00 | 0.00 | 0.00 | 72 | 1013.5 |
| 20260508145550 | 16 | 146 | 3.2 | 9.7 | 0.00 | 0.00 | 0.00 | 73 | 1013.4 |
| 20260508145052 | 16 | 244 | 4.8 | 11.3 | 0.00 | 0.00 | 0.00 | 70 | 1013.3 |
| 20260508144549 | 15 | 188 | 3.2 | 8.0 | 0.00 | 0.00 | 0.00 | 71 | 1013.5 |
| 20260508144047 | 15 | 199 | 0.0 | 11.3 | 0.00 | 0.00 | 0.00 | 77 | 1013.6 |
| 20260508143546 | 15 | 202 | 1.6 | 11.3 | 0.00 | 0.00 | 0.00 | 74 | 1013.5 |
| 20260508143048 | 14 | 151 | 1.6 | 6.4 | 0.00 | 0.00 | 0.00 | 73 | 1013.7 |
| 20260508142544 | 14 | 190 | 3.2 | 8.0 | 0.00 | 0.00 | 0.00 | 74 | 1013.8 |
| 20260508142048 | 14 | 174 | 3.2 | 9.7 | 0.00 | 0.00 | 0.00 | 75 | 1013.8 |
| 20260508141545 | 14 | 161 | 3.2 | 9.7 | 0.00 | 0.00 | 0.00 | 72 | 1013.9 |
| 20260508141044 | 14 | 134 | 1.6 | 9.7 | 0.00 | 0.00 | 0.00 | 75 | 1013.9 |
| 20260508140646 | 14 | 179 | 4.8 | 9.7 | 0.00 | 0.00 | 0.00 | 73 | 1014.0 |
| 20260508140053 | 14 | 162 | 3.2 | 12.9 | 0.00 | 0.00 | 0.00 | 72 | 1014.0 |
| 20260508135553 | 14 | 196 | 4.8 | 12.9 | 0.00 | 0.00 | 0.00 | 73 | 1014.0 |
| 20260508135052 | 14 | 137 | 3.2 | 12.9 | 0.00 | 0.00 | 0.00 | 73 | 1014.0 |
| 20260508134550 | 13 | 174 | 1.6 | 9.7 | 0.00 | 0.00 | 0.00 | 77 | 1014.0 |
| 20260508134048 | 13 | 169 | 3.2 | 11.3 | 0.00 | 0.00 | 0.00 | 76 | 1014.0 |
| 20260508133550 | 13 | 136 | 4.8 | 11.3 | 0.00 | 0.00 | 0.00 | 75 | 1014.1 |
| 20260508133048 | 13 | 121 | 1.6 | 9.7 | 0.00 | 0.00 | 0.00 | 80 | 1014.2 |
| 20260508132545 | 13 | 194 | 1.6 | 9.7 | 0.00 | 0.00 | 0.00 | 81 | 1014.1 |
| 20260508132042 | 12 | 146 | 1.6 | 9.7 | 0.00 | 0.00 | 0.00 | 84 | 1014.1 |
| 20260508131552 | 12 | 100 | 1.6 | 12.9 | 0.00 | 0.00 | 0.00 | 83 | 1014.2 |
| 20260508131042 | 12 | 98 | 3.2 | 12.9 | 0.00 | 0.00 | 0.00 | 83 | 1014.2 |
| 20260508130511 | 12 | 159 | 6.4 | 14.5 | 0.00 | 0.00 | 0.00 | 81 | 1014.1 |
| 20260508130012 | 12 | 166 | 4.8 | 12.9 | 0.00 | 0.00 | 0.00 | 84 | 1014.0 |
| 20260508125509 | 11 | 184 | 3.2 | 9.7 | 0.00 | 0.00 | 0.00 | 86 | 1013.9 |
| 20260508125008 | 11 | 163 | 3.2 | 9.7 | 0.00 | 0.00 | 0.00 | 88 | 1013.9 |
| 20260508124506 | 10 | 163 | 1.6 | 4.8 | 0.00 | 0.00 | 0.00 | 91 | 1014.0 |
| 20260508124005 | 10 | 216 | 0.0 | 11.3 | 0.00 | 0.00 | 0.00 | 90 | 1014.1 |
| 20260508123505 | 10 | 204 | 1.6 | 11.3 | 0.00 | 0.00 | 0.00 | 90 | 1014.1 |
| 20260508123006 | 10 | 175 | 1.6 | 9.7 | 0.00 | 0.00 | 0.00 | 90 | 1014.0 |
| 20260508122501 | 9 | 90 | 1.6 | 9.7 | 0.00 | 0.00 | 0.00 | 89 | 1014.0 |
| 20260508122002 | 9 | 134 | 1.6 | 4.8 | 0.00 | 0.00 | 0.00 | 89 | 1013.9 |
| 20260508121600 | 8 | 144 | 1.6 | 6.4 | 0.00 | 0.00 | 0.00 | 89 | 1013.9 |
| 20260508121058 | 8 | 126 | 3.2 | 6.4 | 0.00 | 0.00 | 0.00 | 89 | 1013.9 |
| 20260508120508 | 8 | 134 | 1.6 | 6.4 | 0.00 | 0.00 | 0.00 | 89 | 1013.8 |
| 20260508120004 | 8 | 121 | 1.6 | 4.8 | 0.00 | 0.00 | 0.00 | 90 | 1013.7 |
| 20260508115503 | 7 | 155 | 1.6 | 4.8 | 0.00 | 0.00 | 0.00 | 91 | 1013.7 |
| 20260508115100 | 7 | 126 | 1.6 | 4.8 | 0.00 | 0.00 | 0.00 | 91 | 1013.6 |
| 20260508114559 | 7 | 121 | 3.2 | 6.4 | 0.00 | 0.00 | 0.00 | 91 | 1013.7 |
| 20260508114058 | 7 | 130 | 1.6 | 6.4 | 0.00 | 0.00 | 0.00 | 90 | 1013.7 |
| 20260508113557 | 7 | 134 | 1.6 | 8.0 | 0.00 | 0.00 | 0.00 | 90 | 1013.7 |
| 20260508113059 | 7 | 159 | 1.6 | 8.0 | 0.00 | 0.00 | 0.00 | 90 | 1013.7 |
| 20260508112555 | 7 | 159 | 1.6 | 8.0 | 0.00 | 0.00 | 0.00 | 89 | 1013.6 |
| 20260508112055 | 7 | 130 | 1.6 | 9.7 | 0.00 | 0.00 | 0.00 | 89 | 1013.4 |
| 20260508111556 | 7 | 129 | 4.8 | 9.7 | 0.00 | 0.00 | 0.00 | 90 | 1013.4 |
| 20260508111054 | 7 | 136 | 1.6 | 6.4 | 0.00 | 0.00 | 0.00 | 90 | 1013.4 |
| 20260508110655 | 7 | 161 | 3.2 | 8.0 | 0.00 | 0.00 | 0.00 | 90 | 1013.4 |
| 20260508110123 | 7 | 161 | 3.2 | 8.0 | 0.00 | 0.00 | 0.00 | 90 | 1013.6 |
| 20260508105556 | 7 | 144 | 3.2 | 8.0 | 0.00 | 0.00 | 0.00 | 90 | 1013.5 |
| 20260508105056 | 7 | 127 | 1.6 | 4.8 | 0.00 | 0.00 | 0.00 | 90 | 1013.6 |
| 20260508104602 | 7 | 144 | 1.6 | 8.0 | 0.00 | 0.00 | 0.00 | 90 | 1013.7 |
| 20260508104055 | 7 | 126 | 1.6 | 8.0 | 0.00 | 0.00 | 0.00 | 90 | 1013.7 |
| 20260508103554 | 7 | 124 | 1.6 | 6.4 | 0.00 | 0.00 | 0.00 | 90 | 1013.6 |
| 20260508103057 | 7 | 133 | 1.6 | 4.8 | 0.00 | 0.00 | 0.00 | 91 | 1013.6 |
| 20260508102552 | 6 | 136 | 0.0 | 4.8 | 0.00 | 0.00 | 0.00 | 92 | 1013.6 |
| 20260508102054 | 6 | 117 | 1.6 | 4.8 | 0.00 | 0.00 | 0.00 | 92 | 1013.7 |
| 20260508101555 | 6 | 138 | 1.6 | 4.8 | 0.00 | 0.00 | 0.00 | 92 | 1013.7 |
| 20260508101051 | 6 | 150 | 1.6 | 4.8 | 0.00 | 0.00 | 0.00 | 92 | 1013.8 |
| 20260508100651 | 6 | 155 | 0.0 | 4.8 | 0.00 | 0.00 | 0.00 | 92 | 1013.9 |
| 20260508100053 | 6 | 165 | 1.6 | 4.8 | 0.00 | 0.00 | 0.00 | 93 | 1013.9 |
| 20260508095557 | 6 | 151 | 1.6 | 4.8 | 0.00 | 0.00 | 0.00 | 93 | 1014.0 |
| 20260508095054 | 6 | 142 | 1.6 | 4.8 | 0.00 | 0.00 | 0.00 | 93 | 1013.9 |
| 20260508094555 | 6 | 138 | 1.6 | 4.8 | 0.00 | 0.00 | 0.00 | 93 | 1013.9 |
| 20260508094051 | 6 | 155 | 0.0 | 4.8 | 0.00 | 0.00 | 0.00 | 93 | 1013.8 |
| 20260508093551 | 6 | 136 | 0.0 | 4.8 | 0.00 | 0.00 | 0.00 | 93 | 1013.9 |
| 20260508093058 | 6 | 136 | 0.0 | 1.6 | 0.00 | 0.00 | 0.00 | 93 | 1013.9 |
| 20260508092549 | 6 | 136 | 0.0 | 1.6 | 0.00 | 0.00 | 0.00 | 93 | 1014.0 |
| 20260508092048 | 6 | 142 | 0.0 | 1.6 | 0.00 | 0.00 | 0.00 | 93 | 1014.0 |
| 20260508091549 | 6 | 142 | 0.0 | 0.0 | 0.00 | 0.00 | 0.00 | 93 | 1013.9 |
| 20260508091048 | 6 | 142 | 0.0 | 0.0 | 0.00 | 0.00 | 0.00 | 93 | 1014.0 |
| 20260508090650 | 6 | 142 | 0.0 | 3.2 | 0.00 | 0.00 | 0.00 | 93 | 1014.0 |
| 20260508090104 | 6 | 142 | 0.0 | 3.2 | 0.00 | 0.00 | 0.00 | 93 | 1013.9 |
| 20260508085546 | 6 | 145 | 0.0 | 1.6 | 0.00 | 0.00 | 0.00 | 93 | 1014.1 |
| 20260508085045 | 6 | 145 | 0.0 | 1.6 | 0.00 | 0.00 | 0.00 | 93 | 1014.1 |
| 20260508084545 | 6 | 144 | 0.0 | 1.6 | 0.00 | 0.00 | 0.00 | 93 | 1014.1 |
| 20260508084048 | 6 | 132 | 0.0 | 1.6 | 0.00 | 0.00 | 0.00 | 93 | 1014.2 |
| 20260508083548 | 6 | 132 | 0.0 | 1.6 | 0.00 | 0.00 | 0.00 | 93 | 1014.2 |
| 20260508083044 | 6 | 132 | 0.0 | 1.6 | 0.00 | 0.00 | 0.00 | 93 | 1014.2 |
| 20260508082544 | 6 | 153 | 0.0 | 4.8 | 0.00 | 0.00 | 0.00 | 93 | 1014.2 |
| 20260508082044 | 6 | 153 | 0.0 | 4.8 | 0.00 | 0.00 | 0.00 | 93 | 1014.2 |
| 20260508081545 | 6 | 123 | 0.0 | 1.6 | 0.00 | 0.00 | 0.00 | 93 | 1014.2 |
| 20260508081042 | 6 | 157 | 0.0 | 1.6 | 0.00 | 0.00 | 0.00 | 93 | 1014.1 |
| 20260508080643 | 6 | 157 | 0.0 | 1.6 | 0.00 | 0.00 | 0.00 | 93 | 1014.2 |
| 20260508080104 | 6 | 157 | 0.0 | 1.6 | 0.00 | 0.00 | 0.00 | 93 | 1014.1 |
| 20260508075559 | 6 | 157 | 0.0 | 1.6 | 0.00 | 0.00 | 0.00 | 93 | 1014.2 |
| 20260508075057 | 6 | 157 | 0.0 | 1.6 | 0.00 | 0.00 | 0.00 | 93 | 1014.4 |
| 20260508074557 | 6 | 157 | 0.0 | 1.6 | 0.00 | 0.00 | 0.00 | 92 | 1014.2 |
| 20260508074059 | 6 | 157 | 0.0 | 1.6 | 0.00 | 0.00 | 0.00 | 92 | 1014.4 |
| 20260508073557 | 6 | 157 | 0.0 | 1.6 | 0.00 | 0.00 | 0.00 | 92 | 1014.4 |
| 20260508073057 | 6 | 157 | 0.0 | 1.6 | 0.00 | 0.00 | 0.00 | 92 | 1014.4 |
| 20260508072556 | 6 | 157 | 0.0 | 1.6 | 0.00 | 0.00 | 0.00 | 92 | 1014.4 |
| 20260508072057 | 6 | 157 | 0.0 | 1.6 | 0.00 | 0.00 | 0.00 | 92 | 1014.4 |
| 20260508071554 | 6 | 157 | 0.0 | 0.0 | 0.00 | 0.00 | 0.00 | 92 | 1014.5 |
| 20260508071055 | 6 | 157 | 0.0 | 0.0 | 0.00 | 0.00 | 0.00 | 92 | 1014.6 |
| 20260508070654 | 6 | 157 | 0.0 | 0.0 | 0.00 | 0.00 | 0.00 | 92 | 1014.5 |
| 20260508070056 | 6 | 157 | 0.0 | 0.0 | 0.00 | 0.00 | 0.00 | 92 | 1014.5 |
| 20260508065558 | 6 | 157 | 0.0 | 1.6 | 0.00 | 0.00 | 0.00 | 92 | 1014.5 |
| 20260508065055 | 6 | 157 | 0.0 | 1.6 | 0.00 | 0.00 | 0.00 | 92 | 1014.6 |
| 20260508064555 | 6 | 147 | 0.0 | 1.6 | 0.00 | 0.00 | 0.00 | 92 | 1014.6 |
| 20260508064055 | 6 | 147 | 0.0 | 1.6 | 0.00 | 0.00 | 0.00 | 92 | 1014.6 |
| 20260508063553 | 6 | 147 | 0.0 | 1.6 | 0.00 | 0.00 | 0.00 | 92 | 1014.7 |
| 20260508063055 | 6 | 147 | 0.0 | 3.2 | 0.00 | 0.00 | 0.00 | 92 | 1014.7 |
| 20260508062551 | 6 | 147 | 0.0 | 3.2 | 0.00 | 0.00 | 0.00 | 92 | 1014.8 |
| 20260508062052 | 6 | 147 | 0.0 | 3.2 | 0.00 | 0.00 | 0.00 | 92 | 1014.9 |
| 20260508061551 | 6 | 189 | 0.0 | 1.6 | 0.00 | 0.00 | 0.00 | 92 | 1014.8 |
| 20260508061050 | 6 | 189 | 0.0 | 3.2 | 0.00 | 0.00 | 0.00 | 92 | 1015.0 |
| 20260508060651 | 6 | 189 | 1.6 | 3.2 | 0.00 | 0.00 | 0.00 | 92 | 1015.0 |
| 20260508060054 | 6 | 189 | 1.6 | 3.2 | 0.00 | 0.00 | 0.00 | 92 | 1015.1 |
| 20260508055551 | 6 | 189 | 0.0 | 3.2 | 0.00 | 0.00 | 0.00 | 92 | 1015.2 |
| 20260508055051 | 6 | 189 | 0.0 | 3.2 | 0.00 | 0.00 | 0.00 | 92 | 1015.2 |
| 20260508054613 | 6 | 189 | 0.0 | 1.6 | 0.00 | 0.00 | 0.00 | 92 | 1015.1 |
| 20260508054049 | 6 | 189 | 0.0 | 1.6 | 0.00 | 0.00 | 0.00 | 92 | 1015.3 |
| 20260508053552 | 6 | 189 | 0.0 | 1.6 | 0.00 | 0.00 | 0.00 | 92 | 1015.3 |
| 20260508053049 | 6 | 189 | 0.0 | 3.2 | 0.00 | 0.00 | 0.00 | 92 | 1015.3 |
| 20260508052550 | 6 | 189 | 0.0 | 3.2 | 0.00 | 0.00 | 0.00 | 92 | 1015.3 |
| 20260508052047 | 6 | 189 | 0.0 | 1.6 | 0.00 | 0.00 | 0.00 | 92 | 1015.4 |
| 20260508051547 | 6 | 189 | 0.0 | 0.0 | 0.00 | 0.00 | 0.00 | 92 | 1015.5 |
| 20260508051047 | 6 | 189 | 0.0 | 0.0 | 0.00 | 0.00 | 0.00 | 92 | 1015.5 |
| 20260508050646 | 6 | 189 | 0.0 | 1.6 | 0.00 | 0.00 | 0.00 | 92 | 1015.4 |
| 20260508050043 | 6 | 189 | 0.0 | 1.6 | 0.00 | 0.00 | 0.00 | 92 | 1015.3 |
| 20260508045542 | 6 | 189 | 0.0 | 1.6 | 0.00 | 0.00 | 0.00 | 92 | 1015.4 |
| 20260508045042 | 6 | 189 | 0.0 | 1.6 | 0.00 | 0.00 | 0.00 | 92 | 1015.5 |
| 20260508044554 | 6 | 189 | 0.0 | 0.0 | 0.00 | 0.00 | 0.00 | 92 | 1015.6 |
| 20260508044042 | 6 | 189 | 0.0 | 1.6 | 0.00 | 0.00 | 0.00 | 92 | 1015.6 |
| 20260508043543 | 6 | 189 | 0.0 | 1.6 | 0.00 | 0.00 | 0.00 | 92 | 1015.6 |
| 20260508043043 | 6 | 189 | 0.0 | 1.6 | 0.00 | 0.00 | 0.00 | 92 | 1015.7 |
| 20260508042542 | 6 | 189 | 0.0 | 0.0 | 0.00 | 0.00 | 0.00 | 92 | 1015.7 |
| 20260508042041 | 6 | 189 | 0.0 | 1.6 | 0.00 | 0.00 | 0.00 | 91 | 1015.7 |
| 20260508041551 | 6 | 189 | 0.0 | 1.6 | 0.00 | 0.00 | 0.00 | 92 | 1015.7 |
| 20260508041041 | 7 | 189 | 0.0 | 1.6 | 0.00 | 0.00 | 0.00 | 91 | 1015.7 |
| 20260508040643 | 7 | 189 | 0.0 | 1.6 | 0.00 | 0.00 | 0.00 | 91 | 1015.7 |
| 20260508040048 | 7 | 189 | 0.0 | 1.6 | 0.00 | 0.00 | 0.00 | 91 | 1015.7 |
| 20260508035541 | 7 | 189 | 0.0 | 1.6 | 0.00 | 0.00 | 0.00 | 91 | 1015.8 |
| 20260508035041 | 7 | 189 | 0.0 | 1.6 | 0.00 | 0.00 | 0.00 | 91 | 1015.8 |
| 20260508034541 | 7 | 189 | 0.0 | 1.6 | 0.00 | 0.00 | 0.00 | 90 | 1015.9 |
| 20260508034041 | 7 | 189 | 0.0 | 1.6 | 0.00 | 0.00 | 0.00 | 90 | 1015.9 |
| 20260508033541 | 7 | 189 | 0.0 | 1.6 | 0.00 | 0.00 | 0.00 | 90 | 1015.9 |
| 20260508033040 | 7 | 189 | 0.0 | 1.6 | 0.00 | 0.00 | 0.00 | 89 | 1015.8 |
| 20260508032543 | 7 | 189 | 0.0 | 0.0 | 0.00 | 0.00 | 0.00 | 89 | 1015.8 |
| 20260508032042 | 7 | 189 | 0.0 | 0.0 | 0.00 | 0.00 | 0.00 | 89 | 1015.7 |
| 20260508031554 | 7 | 189 | 0.0 | 0.0 | 0.00 | 0.00 | 0.00 | 89 | 1015.6 |
| 20260508031039 | 7 | 189 | 0.0 | 0.0 | 0.00 | 0.00 | 0.00 | 89 | 1015.7 |
| 20260508030639 | 7 | 189 | 0.0 | 0.0 | 0.00 | 0.00 | 0.00 | 88 | 1015.6 |
| 20260508030114 | 7 | 189 | 0.0 | 0.0 | 0.00 | 0.00 | 0.00 | 88 | 1015.5 |
| 20260508025600 | 8 | 189 | 0.0 | 0.0 | 0.00 | 0.00 | 0.00 | 87 | 1015.4 |
| 20260508025100 | 8 | 189 | 0.0 | 0.0 | 0.00 | 0.00 | 0.00 | 87 | 1015.4 |
| 20260508024607 | 8 | 189 | 0.0 | 0.0 | 0.00 | 0.00 | 0.00 | 86 | 1015.4 |
| 20260508024059 | 8 | 189 | 0.0 | 1.6 | 0.00 | 0.00 | 0.00 | 86 | 1015.2 |
| 20260508023558 | 8 | 189 | 0.0 | 1.6 | 0.00 | 0.00 | 0.00 | 85 | 1015.2 |
| 20260508023058 | 8 | 189 | 0.0 | 1.6 | 0.00 | 0.00 | 0.00 | 84 | 1015.1 |
| 20260508022557 | 8 | 189 | 0.0 | 1.6 | 0.00 | 0.00 | 0.00 | 84 | 1015.1 |
| 20260508022057 | 9 | 189 | 0.0 | 1.6 | 0.00 | 0.00 | 0.00 | 83 | 1015.1 |
| 20260508021615 | 9 | 189 | 0.0 | 1.6 | 0.00 | 0.00 | 0.00 | 82 | 1014.9 |
| 20260508021059 | 9 | 189 | 0.0 | 0.0 | 0.00 | 0.00 | 0.00 | 81 | 1014.9 |
| 20260508020656 | 10 | 189 | 0.0 | 0.0 | 0.00 | 0.00 | 0.00 | 80 | 1014.8 |
| 20260508020054 | 10 | 189 | 0.0 | 0.0 | 0.00 | 0.00 | 0.00 | 78 | 1014.7 |
| 20260508015554 | 10 | 189 | 0.0 | 0.0 | 0.00 | 0.00 | 0.00 | 77 | 1014.6 |
| 20260508015053 | 10 | 189 | 0.0 | 0.0 | 0.00 | 0.00 | 0.00 | 76 | 1014.6 |
| 20260508014553 | 10 | 189 | 0.0 | 0.0 | 0.00 | 0.00 | 0.00 | 76 | 1014.5 |
| 20260508014053 | 11 | 189 | 0.0 | 0.0 | 0.00 | 0.00 | 0.00 | 77 | 1014.5 |
| 20260508013552 | 11 | 189 | 0.0 | 0.0 | 0.00 | 0.00 | 0.00 | 76 | 1014.4 |
| 20260508013056 | 11 | 189 | 0.0 | 0.0 | 0.00 | 0.00 | 0.00 | 75 | 1014.4 |
| 20260508012552 | 11 | 189 | 0.0 | 0.0 | 0.00 | 0.00 | 0.00 | 73 | 1014.4 |
| 20260508012055 | 11 | 189 | 0.0 | 0.0 | 0.00 | 0.00 | 0.00 | 73 | 1014.4 |
| 20260508011559 | 12 | 189 | 0.0 | 0.0 | 0.00 | 0.00 | 0.00 | 71 | 1014.3 |
| 20260508011056 | 12 | 189 | 0.0 | 0.0 | 0.00 | 0.00 | 0.00 | 71 | 1014.2 |
| 20260508010654 | 12 | 189 | 0.0 | 0.0 | 0.00 | 0.00 | 0.00 | 70 | 1014.3 |
| 20260508010054 | 12 | 189 | 0.0 | 1.6 | 0.00 | 0.00 | 0.00 | 68 | 1014.2 |
| 20260508005555 | 13 | 189 | 0.0 | 1.6 | 0.00 | 0.00 | 0.00 | 65 | 1014.1 |
| 20260508005058 | 13 | 189 | 0.0 | 1.6 | 0.00 | 0.00 | 0.00 | 62 | 1014.0 |
| 20260508004559 | 14 | 189 | 0.0 | 1.6 | 0.00 | 0.00 | 0.00 | 61 | 1014.1 |
| 20260508004053 | 14 | 190 | 0.0 | 1.6 | 0.00 | 0.00 | 0.00 | 59 | 1014.1 |
| 20260508003552 | 15 | 190 | 0.0 | 3.2 | 0.00 | 0.00 | 0.00 | 59 | 1014.1 |
| 20260508003103 | 16 | 199 | 1.6 | 6.4 | 0.00 | 0.00 | 0.00 | 53 | 1014.0 |
| 20260508002552 | 16 | 230 | 1.6 | 6.4 | 0.00 | 0.00 | 0.00 | 49 | 1014.0 |
| 20260508002051 | 16 | 195 | 1.6 | 3.2 | 0.00 | 0.00 | 0.00 | 49 | 1014.0 |
| 20260508001552 | 16 | 222 | 0.0 | 8.0 | 0.00 | 0.00 | 0.00 | 49 | 1014.0 |
| 20260508001051 | 17 | 240 | 1.6 | 9.7 | 0.00 | 0.00 | 0.00 | 49 | 1013.9 |
| 20260508000651 | 17 | 275 | 1.6 | 9.7 | 0.00 | 0.00 | 0.00 | 48 | 1013.9 |
| 20260508000050 | 17 | 190 | 0.0 | 6.4 | 0.00 | 0.00 | 0.00 | 46 | 1013.9 |
| 20260507235550 | 17 | 163 | 1.6 | 8.0 | 0.00 | 0.00 | 0.00 | 46 | 1013.8 |
| 20260507235049 | 17 | 202 | 1.6 | 8.0 | 0.00 | 0.00 | 0.00 | 47 | 1013.9 |
| 20260507234550 | 17 | 323 | 1.6 | 8.0 | 0.00 | 0.00 | 0.00 | 47 | 1013.9 |
| 20260507234051 | 17 | 310 | 3.2 | 14.5 | 0.00 | 0.00 | 0.00 | 47 | 1013.8 |
| 20260507233548 | 17 | 306 | 1.6 | 14.5 | 0.00 | 0.00 | 0.00 | 47 | 1013.9 |
| 20260507233048 | 17 | 158 | 4.8 | 14.5 | 0.00 | 0.00 | 0.00 | 45 | 1014.0 |
| 20260507232548 | 18 | 260 | 1.6 | 9.7 | 0.00 | 0.00 | 0.00 | 45 | 1014.1 |
| 20260507232047 | 17 | 186 | 3.2 | 12.9 | 0.00 | 0.00 | 0.00 | 45 | 1014.1 |
| 20260507231555 | 18 | 181 | 1.6 | 11.3 | 0.00 | 0.00 | 0.00 | 44 | 1014.1 |
| 20260507231046 | 18 | 307 | 1.6 | 11.3 | 0.00 | 0.00 | 0.00 | 45 | 1014.1 |
| 20260507230646 | 18 | 266 | 1.6 | 8.0 | 0.00 | 0.00 | 0.00 | 46 | 1014.2 |
| 20260507230047 | 17 | 250 | 1.6 | 11.3 | 0.00 | 0.00 | 0.00 | 47 | 1014.2 |
| 20260507225548 | 17 | 157 | 3.2 | 14.5 | 0.00 | 0.00 | 0.00 | 46 | 1014.3 |
| 20260507225048 | 17 | 228 | 6.4 | 14.5 | 0.00 | 0.00 | 0.00 | 43 | 1014.3 |
| 20260507224558 | 17 | 206 | 4.8 | 11.3 | 0.00 | 0.00 | 0.00 | 43 | 1014.4 |
| 20260507224044 | 17 | 198 | 3.2 | 8.0 | 0.00 | 0.00 | 0.00 | 43 | 1014.5 |
| 20260507223549 | 17 | 43 | 1.6 | 16.1 | 0.00 | 0.00 | 0.00 | 44 | 1014.6 |
| 20260507223048 | 18 | 75 | 1.6 | 16.1 | 0.00 | 0.00 | 0.00 | 46 | 1014.6 |
| 20260507222548 | 18 | 154 | 4.8 | 12.9 | 0.00 | 0.00 | 0.00 | 43 | 1014.5 |
| 20260507222044 | 18 | 223 | 4.8 | 22.5 | 0.00 | 0.00 | 0.00 | 46 | 1014.5 |
| 20260507221545 | 18 | 206 | 8.0 | 22.5 | 0.00 | 0.00 | 0.00 | 45 | 1014.6 |
| 20260507221044 | 18 | 209 | 3.2 | 16.1 | 0.00 | 0.00 | 0.00 | 46 | 1014.5 |
| 20260507220644 | 17 | 271 | 0.0 | 8.0 | 0.00 | 0.00 | 0.00 | 46 | 1014.5 |
| 20260507220044 | 17 | 284 | 1.6 | 14.5 | 0.00 | 0.00 | 0.00 | 45 | 1014.6 |
| 20260507215544 | 17 | 261 | 4.8 | 14.5 | 0.00 | 0.00 | 0.00 | 44 | 1014.6 |
| 20260507215043 | 18 | 267 | 1.6 | 17.7 | 0.00 | 0.00 | 0.00 | 46 | 1014.6 |
| 20260507214543 | 18 | 212 | 3.2 | 17.7 | 0.00 | 0.00 | 0.00 | 47 | 1014.6 |
| 20260507214041 | 17 | 283 | 1.6 | 16.1 | 0.00 | 0.00 | 0.00 | 45 | 1014.6 |
| 20260507213541 | 17 | 296 | 6.4 | 16.1 | 0.00 | 0.00 | 0.00 | 43 | 1014.7 |
| 20260507213048 | 18 | 257 | 4.8 | 11.3 | 0.00 | 0.00 | 0.00 | 42 | 1014.8 |
| 20260507212540 | 18 | 313 | 1.6 | 8.0 | 0.00 | 0.00 | 0.00 | 45 | 1014.8 |
| 20260507212039 | 18 | 267 | 1.6 | 12.9 | 0.00 | 0.00 | 0.00 | 48 | 1014.9 |
| 20260507211539 | 17 | 227 | 1.6 | 12.9 | 0.00 | 0.00 | 0.00 | 45 | 1015.0 |
| 20260507211038 | 18 | 267 | 3.2 | 16.1 | 0.00 | 0.00 | 0.00 | 48 | 1015.0 |
| 20260507210640 | 18 | 188 | 1.6 | 16.1 | 0.00 | 0.00 | 0.00 | 43 | 1015.0 |
| 20260507210121 | 18 | 218 | 3.2 | 11.3 | 0.00 | 0.00 | 0.00 | 41 | 1015.0 |
| 20260507205558 | 18 | 253 | 6.4 | 12.9 | 0.00 | 0.00 | 0.00 | 42 | 1015.2 |
| 20260507205058 | 18 | 166 | 1.6 | 19.3 | 0.00 | 0.00 | 0.00 | 46 | 1015.3 |
| 20260507204604 | 18 | 294 | 4.8 | 19.3 | 0.00 | 0.00 | 0.00 | 42 | 1015.2 |
| 20260507204059 | 18 | 327 | 4.8 | 19.3 | 0.00 | 0.00 | 0.00 | 43 | 1015.3 |
| 20260507203556 | 18 | 232 | 6.4 | 16.1 | 0.00 | 0.00 | 0.00 | 43 | 1015.5 |
| 20260507203058 | 19 | 294 | 4.8 | 12.9 | 0.00 | 0.00 | 0.00 | 46 | 1015.5 |
| 20260507202554 | 19 | 254 | 3.2 | 12.9 | 0.00 | 0.00 | 0.00 | 43 | 1015.6 |
| 20260507202056 | 18 | 262 | 3.2 | 20.9 | 0.00 | 0.00 | 0.00 | 44 | 1015.5 |
| 20260507201553 | 18 | 155 | 1.6 | 20.9 | 0.00 | 0.00 | 0.00 | 46 | 1015.7 |
| 20260507201053 | 18 | 190 | 4.8 | 11.3 | 0.00 | 0.00 | 0.00 | 44 | 1015.8 |
| 20260507200652 | 18 | 303 | 3.2 | 11.3 | 0.00 | 0.00 | 0.00 | 46 | 1015.9 |
| 20260507200105 | 18 | 37 | 1.6 | 17.7 | 0.00 | 0.00 | 0.00 | 42 | 1016.1 |
| 20260507195556 | 18 | 223 | 3.2 | 19.3 | 0.00 | 0.00 | 0.00 | 44 | 1016.2 |
| 20260507195053 | 18 | 52 | 4.8 | 19.3 | 0.00 | 0.00 | 0.00 | 41 | 1016.3 |
| 20260507194553 | 18 | 160 | 6.4 | 17.7 | 0.00 | 0.00 | 0.00 | 41 | 1016.1 |
| 20260507194055 | 18 | 172 | 9.7 | 19.3 | 0.00 | 0.00 | 0.00 | 43 | 1016.2 |
| 20260507193552 | 18 | 146 | 8.0 | 24.1 | 0.00 | 0.00 | 0.00 | 42 | 1016.2 |
| 20260507193110 | 18 | 355 | 3.2 | 24.1 | 0.00 | 0.00 | 0.00 | 41 | 1016.2 |
| 20260507192552 | 18 | 279 | 4.8 | 16.1 | 0.00 | 0.00 | 0.00 | 38 | 1016.2 |